Find Local Weather

World > North America > United States > North Dakota

Tioga, North Dakota Regional Weather

Lat: 48.40N, Lon: 102.94W
Wx Zone: NDZ009
Feedback

Tioga, ND Regional Weather

Expires:201905270000;;514113
ASUS43 KBIS 262331
RWRND 
NORTH DAKOTA REGIONAL WEATHER ROUNDUP
NATIONAL WEATHER SERVICE EASTERN NORTH DAKOTA/GRAND FORKS ND
600 PM CDT SUN MAY 26 2019

  NOTE: "FAIR" INDICATES FEW OR NO CLOUDS BELOW 12,000 FEET WITH NO
  SIGNIFICANT WEATHER AND/OR OBSTRUCTIONS TO VISIBILITY.


NDZ001>003-009>011-017-270000-
...NORTHWEST NORTH DAKOTA...
  
CITY           SKY/WX    TMP DP  RH WIND       PRES   REMARKS
WILLISTON      FAIR      66  49  54 E13       30.03F                  
MINOT          CLOUDY    54  45  71 NE14      30.09F                  
MINOT AFB      CLOUDY    53  44  72 NE16      30.09S                  
$$


SKY/WX - Weather  TMP - Temperature  DP - Dew Point  RH - Relative Humidity
WIND - Wind Direction/Speed PRES - Barometric Pressure VSB - Visibility
WCI - Wind Chill Index E13G22 Wind - East Wind 13 mph/Gusts of 22 mph